El Centro, CA

3:56 PM PST on December 16, 2017 (GMT -0800)
El Centro Naval Air Facility

Weather History for KNJK - October, 2013

Change the Weather History Date:

Sunday, October 6, 2013

  Actual Average Record
Temperature  
Mean Temperature 73 °F -  
Max Temperature 91 °F 93 °F 100 °F (2004)
Min Temperature 55 °F 65 °F 55 °F (2007)
Cooling Degree Days 8    
Growing Degree Days 23 (Base 50)    
Moisture  
Dew Point 23 °F    
Average Humidity 18    
Maximum Humidity 30    
Minimum Humidity 8    
Precipitation  
Precipitation 0.00 in - - ()
Sea Level Pressure  
Sea Level Pressure 30.07 in    
Wind  
Wind Speed 8 mph (West)    
Max Wind Speed 10 mph    
Max Gust Speed -    
Visibility 10 miles    
Events      
Averages and records for this station are not official NWS values.
T = Trace of Precipitation, MM = Missing Value Source: NWS Daily Summary

Daily Weather History Graph

Daily Weather History Graph

Search for Another Location

Airport or City:

Trip Planner

Search our weather history database for the weather conditions in past years. The results will help you decide how hot, cold, wet, or windy it might be!

Date:

Astronomy

Oct. 06, 2013 Rise Set
Actual Time 6:40 AM PDT 6:20 PM PDT
Civil Twilight 6:15 AM PDT 6:45 PM PDT
Nautical Twilight 5:47 AM PDT 7:13 PM PDT
Astronomical Twilight 5:18 AM PDT 7:42 PM PDT
Moon 8:22 AM PDT (10/6) 7:31 PM PDT (10/6)
Length of Visible Light 12h 29m
Length of Day
11h 39m
Waxing Crescent, 4% of the Moon is Illuminated
Oct 6
Waxing Crescent
Oct 11
First Quarter
Oct 18
Full
Oct 26
Last Quarter
Nov 3
New

Hourly Weather History & Observations

Time (PDT) Temp. Dew Point Humidity Pressure Visibility Wind Dir Wind Speed Gust Speed Precip Events Conditions
12:56 AM 60.1 °F 21.0 °F 22% 30.14 in 10.0 mi WSW 10.4 mph - N/A   Clear
1:56 AM 57.0 °F 21.0 °F 25% 30.13 in 10.0 mi West 10.4 mph - N/A   Clear
2:56 AM 57.0 °F 21.9 °F 26% 30.12 in 10.0 mi West 9.2 mph - N/A   Clear
3:56 AM 57.0 °F 21.9 °F 26% 30.11 in 10.0 mi WSW 6.9 mph - N/A   Clear
4:56 AM 55.9 °F 25.0 °F 30% 30.11 in 10.0 mi WSW 8.1 mph - N/A   Clear
5:56 AM 55.0 °F 24.1 °F 30% 30.11 in 10.0 mi West 8.1 mph - N/A   Clear
6:56 AM 55.9 °F 25.0 °F 30% 30.12 in 10.0 mi West 8.1 mph - N/A   Clear
7:56 AM 62.1 °F 21.9 °F 21% 30.13 in 10.0 mi West 8.1 mph - N/A   Clear
8:56 AM 72.0 °F 27.0 °F 19% 30.15 in 10.0 mi West 6.9 mph - N/A   Clear
9:56 AM 80.1 °F 30.9 °F 17% 30.15 in 10.0 mi WNW 4.6 mph - N/A   Clear
10:56 AM 84.9 °F 21.9 °F 10% 30.14 in 10.0 mi NNE 5.8 mph - N/A   Clear
11:56 AM 87.1 °F 19.9 °F 8% 30.11 in 10.0 mi NNE 5.8 mph - N/A   Clear
12:56 PM 88.0 °F 21.0 °F 9% 30.08 in 10.0 mi Variable 4.6 mph - N/A   Clear
1:56 PM 89.1 °F 21.0 °F 8% 30.06 in 10.0 mi Calm Calm - N/A   Clear
2:56 PM 90.0 °F 21.9 °F 8% 30.03 in 10.0 mi East 3.5 mph - N/A   Clear
3:56 PM 91.0 °F 21.0 °F 8% 30.01 in 10.0 mi Variable 3.5 mph - N/A   Clear
4:56 PM 89.1 °F 19.9 °F 8% 30.01 in 10.0 mi SW 8.1 mph - N/A   Clear
5:56 PM 86.0 °F 24.1 °F 10% 29.99 in 10.0 mi SW 6.9 mph - N/A   Clear
6:56 PM 79.0 °F 23.0 °F 13% 29.99 in 10.0 mi SW 8.1 mph - N/A   Clear
7:56 PM 75.9 °F 24.1 °F 15% 30.00 in 10.0 mi WSW 5.8 mph - N/A   Clear
8:56 PM 70.0 °F 26.1 °F 19% 30.00 in 10.0 mi West 4.6 mph - N/A   Clear
9:56 PM 66.0 °F 26.1 °F 22% 30.00 in 10.0 mi WSW 9.2 mph - N/A   Clear
10:56 PM 66.9 °F 21.0 °F 17% 30.00 in 10.0 mi WSW 9.2 mph - N/A   Clear
11:56 PM 62.1 °F 23.0 °F 22% 29.99 in 10.0 mi West 9.2 mph - N/A   Clear